Madisonville Regional (2I0)

 

Airport Diagram
No Airport Diagram Available
Current Weather/Forecast (VFR Conditions)
METAR K2I0 071235Z AUTO 26005KT 10SM CLR 10/07 A3014 RMK AO2 T00990068
TAF

Airport Information

All Charts
General
Chart Name View
TAKEOFF MINIMUMS
ALTERNATE MINIMUMS

Approaches
Chart Name Download
RNAV (GPS) RWY 05
RNAV (GPS) RWY 23


Airport Statistics
Departures Arrivals Local
All Collected Stats since June 2016: 2 2 0
2021 Stats: 1 0 0
May Stats: 0 0 0

Inbound Traffic (Arrivals) - 0

No inbound traffic.


Outbound Traffic (Departures) - 0

No outbound traffic.


Local Traffic (Pattern) - 0

No local traffic.